VODKAPOKER | Poker Online Indonesia Terbesar Dan Terpercaya

Jackpot

Texas Poker Multi Jackpot System

Kini Telah hadir Jackpot SUPER ROYAL FLUSH

Kini Telah hadir Jackpot 2000 (khusus table VIP keatas).

Ikutilah global jackpot yang tersedia di system kami, dengan system jackpot terbaru dan pertama di indonesia, anda dapat membeli jackpot dengan harga 100 rupiah saja dan menangkan hadiahnya hingga puluhan juta rupiah.

Jackpot bukanlah suatu keharusan untuk dibeli, namun kami memberikan suatu fitur tambahan untuk member tercinta dari www.vodkapoker88.com.

Terdapat tiga pilihan harga jackpot yang bisa anda beli yaitu :100,500,1000 dan 2000(khusus table VIP Keatas) rupiah.

Hadiah dari Multi jackpot system www.vodkapoker88.com

  1. full house x 10 harga jackpot yang anda beli.
      (contoh:anda membeli 1000 maka:1000 X10 = 10.000)
  2. four of kind x 250 harga jackpot yang anda beli
      (contoh:anda membeli 1000 maka:1000 X250 = 250.000)
  3. Straight flush x 1200
      (contoh:anda membeli 1000 maka:1000 X1200 = 1.200.000)
  4. Royal flush x 10000 harga jackpot yang anda beli
      (contoh:anda membeli 1000 maka:1000 X10000 = 10.000.000)
  5. SUPER ROYAL FLUSH x 30000 harga jackpot yang anda beli
      (contoh:anda membeli 1000 maka:1000 X30000 = 30.000.000)

Kondisi kartu

  1. full house adalah kondisi kartu dimana kartu anda dan kartu tengah dengan total 7 kartu bisa mendapatkan nilai 5 kartu dengan kombinasi 1 tris(three of kind) dan 1 pair, contoh 3 kartu 10 dan 2 kartu 5
  2. Four of kind adalah kondisi kartu dimana kartu anda dan kartu tengah dengan total 7 kartu bisa mendapatkan nilai 5 kartu dengan kombinasi 4 kartu yang sama jumlah dan 1 kartu apapun juga contoh anda mendapatkan 4 buah kartu angka 3 dan 1 kartu apapun.
  3. Staright flush adalah kondisi kartu dimana kartu anda dan kartu tengah dengan total 7 kartu bisa mendapatkan nilai 5 kartu dengan kombinasi seri / staright dengan kembang yang sama contoh : urutan kartu dari angka 5, 6, 7, 8 , 9 10 dengan kembang yg sama misalnya as hati
  4. Royal flush adalah kondisi kartu dimana kartu anda dan kartu tengah dengan total 7 kartu bisa mendapatkan nilai 5 kartu dengan kombinasi seri / staright dengan kembang yang sama tetapi kartu tersebut haruslah dimulai dari 10. contoh 10, Queen, Jack, King dan aces dengan kembang yang sama
  5. Super Royal flush adalah kondisi kartu dimana Kedua kartu anda digabung dengan 3 kartu pertama meja haruslah royal flush. contoh kartu anda 10,Queen kembang sama dan 3 kartu pertama meja adalah Jack, King dan aces dengan kembang yang sama

Demikian adalah penjelasan dari Multi Jackpot www.vodkapoker88.com terima kasih dan selamat bermain salam hoki dari kami

Texas Poker Jackpot Winner

TOP SUPER ROYAL FLUSH
No.TanggalNamaPriceWin
115/12 16:03ROESLI19Super Royal flush6,000,000
215/12 14:37TXW8GPQ0R8Super Royal flush30,000,000
315/12 11:10MAKHSuper Royal flush15,000,000
414/12 20:48KABOJA999Super Royal flush3,000,000
514/12 14:49MELESETSuper Royal flush30,000,000
TOP ROYAL FLUSH
No.TanggalNamaPriceWin
115/12 20:24KUDIL991Royal flush1,000,000
215/12 19:28B067C658Royal flush2,000,000
315/12 19:20SATELITRoyal flush20,000,000
415/12 19:05ACEPMTH84Royal flush5,000,000
515/12 18:57TTTAKARoyal flush5,000,000
TOP STRAIGHT FLUSH
No.TanggalNamaPriceWin
115/12 20:42BOELOED88Straight Flush120,000
215/12 20:42REKAYA28Straight Flush2,400,000
315/12 20:42JIMBROStraight Flush2,400,000
415/12 20:40BENJIMEN9Straight Flush240,000
515/12 20:37B4D8B438Straight Flush240,000
LATEST JACKPOT
No.TanggalNamaPriceWin
115/12 20:42VSNVBV0ZKTFull House20,000
215/12 20:42SONYSPFull House5,000
315/12 20:42JUNKKE88Full House5,000
415/12 20:42FREDYYY88Full House5,000
515/12 20:42HOKY734Full House1,000
615/12 20:42RUSDAYAFull House1,000
715/12 20:42BOELOED88Straight Flush120,000
815/12 20:42JOKEN44Full House2,000
915/12 20:42PAKORN11Full House5,000
1015/12 20:42ALKATIRI02Full House2,000
1115/12 20:42Y0UNGS101Full House1,000
1215/12 20:42KVEBGRO0ILFull House1,000
1315/12 20:42KOPRAL15Full House1,000
1415/12 20:42IPUT378Full House1,000
1515/12 20:42JEKY_JPFull House5,000
1615/12 20:42IDAJAIBFull House5,000
1715/12 20:42NUAGUNG33Full House5,000
1815/12 20:42SNI45488Four Of A Kind250,000
1915/12 20:42KUMBANKK99Full House1,000
2015/12 20:42ANGGIAT69Full House1,000
2115/12 20:42YUNI86AFour Of A Kind125,000
2215/12 20:42RAH4RJAFull House5,000
2315/12 20:42TDAAAAFull House10,000
2415/12 20:42MKDIRANA88Full House10,000
2515/12 20:42FIYU09Full House1,000
2615/12 20:42RILDFull House1,000
2715/12 20:42DELONGFull House5,000
2815/12 20:42F25E1FEAFull House2,000
2915/12 20:42F74E037DFull House2,000
3015/12 20:42CUSMIN88Four Of A Kind250,000
3115/12 20:42REKAYA28Straight Flush2,400,000
3215/12 20:42ANDEH12Full House2,000
3315/12 20:42EKOCIPLUSFull House2,000
3415/12 20:42ICHRAM2206Full House2,000
3515/12 20:42TONY19Full House10,000
3615/12 20:42NYOMAN420Full House10,000
3715/12 20:42MR_CHANK88Full House10,000
3815/12 20:42SIVEJPFull House5,000
3915/12 20:42NANGDE77Four Of A Kind250,000
4015/12 20:42JIGGIE77Full House2,000
4115/12 20:42DT6FOSIH0GFull House1,000
4215/12 20:42MKP009Full House10,000
4315/12 20:42BEGAL_LMPGFull House2,000
4415/12 20:42TRAPIVISIFull House10,000
4515/12 20:42OLALA36Full House20,000
4615/12 20:42TUNG4EUFour Of A Kind125,000
4715/12 20:42QLEZ60JEGFFull House5,000
4815/12 20:42BX123Full House1,000
4915/12 20:42SARIKAWAFull House5,000
5015/12 20:42TEKEN1Full House2,000

Domino Multi Jackpot System

Ikutilah global jackpot yang tersedia di system kami, dengan system jackpot terbaru dan pertama di indonesia, anda dapat membeli jackpot dengan harga 100 rupiah saja dan menangkan hadiahnya hingga puluhan juta rupiah.

Jackpot bukanlah suatu keharusan untuk dibeli, namun kami memberikan suatu fitur tambahan untuk member tercinta dari www.vodkapoker88.com.

Terdapat tiga pilihan harga jackpot yang bisa anda beli yaitu :100,500 dan 1000 rupiah.

Hadiah dari Multi jackpot system www.vodkapoker88.com

  1. Murni Kecil x 50 harga jackpot yang anda beli.
      (contoh:anda membeli 1000 maka:1000 X 50 = 50.000)
  2. Murni Besar x 50 harga jackpot yang anda beli
      (contoh:anda membeli 1000 maka:1000 X 50 = 50.000)
  3. BALAK x 100 harga jackpot yang anda beli
      (contoh:anda membeli 1000 maka:1000 X 100 = 100.000)
  4. ENAM DEWA x 6666 harga jackpot yang anda beli
      (contoh:anda membeli 1000 maka:1000 X 6666 = 6.666.000)

Demikian adalah penjelasan dari Multi Jackpot www.vodkapoker88.com terima kasih dan selamat bermain salam hoki dari kami

Domino Jackpot Winner

TOP ENAM DEWA
No.TanggalNamaPriceWin
115/12 19:31HIHIHII22murni enam3,333,000
215/12 18:41MENTREK99murni enam3,333,000
315/12 17:57W4NB0Ymurni enam3,333,000
415/12 16:04KUNCORO183murni enam666,600
515/12 15:24X642EE327Vmurni enam6,666,000
TOP BALAK
No.TanggalNamaPriceWin
115/12 20:42NGATANGbalak50,000
215/12 20:40TRIHUT99balak50,000
315/12 20:39WANWILLYbalak100,000
415/12 20:37BAHSINbalak100,000
515/12 20:35THENGULLLLbalak50,000
LATEST JACKPOT
No.TanggalNamaPriceWin
115/12 20:42AQ02murni besar25,000
215/12 20:42WKWKWKWKWKmurni besar50,000
315/12 20:42NGATANGbalak50,000
415/12 20:41FBYDJmurni kecil50,000
515/12 20:41SADAMSmurni kecil50,000
615/12 20:41TEMPURJPmurni kecil5,000
715/12 20:40BENGHULmurni besar50,000
815/12 20:40BDR1114murni kecil50,000
915/12 20:40NGGOWBmurni kecil25,000
1015/12 20:40UKIABImurni besar50,000
1115/12 20:40NAMARAFCmurni besar5,000
1215/12 20:40TONER_BABImurni besar25,000
1315/12 20:40TRIHUT99balak50,000
1415/12 20:39SUBDIT1murni besar25,000
1515/12 20:39TEMPURJPmurni besar5,000
1615/12 20:39DAPAH66murni besar5,000
1715/12 20:39WANWILLYbalak100,000
1815/12 20:39BUDIGMmurni kecil25,000
1915/12 20:38DADONG9murni kecil50,000
2015/12 20:38RENGKUH_CUmurni besar25,000
2115/12 20:38DODA2310murni kecil50,000
2215/12 20:38SUBDIT1murni besar25,000
2315/12 20:38RAWONCOYmurni kecil25,000
2415/12 20:37T0ID1murni kecil25,000
2515/12 20:37MZEN234murni kecil50,000
2615/12 20:37FANTUZZImurni kecil50,000
2715/12 20:37MRS84murni besar50,000
2815/12 20:37BAHSINbalak100,000
2915/12 20:36ARHAM1126murni kecil25,000
3015/12 20:36LORENK87murni kecil5,000
3115/12 20:35OMENPEREZmurni kecil5,000
3215/12 20:35THENGULLLLbalak50,000
3315/12 20:35KARUNIAQQQmurni kecil25,000
3415/12 20:34SOFANAbalak50,000
3515/12 20:34KULAMBITbalak100,000
3615/12 20:34KOINAWANmurni kecil50,000
3715/12 20:33CMD98463murni kecil5,000
3815/12 20:33XX8JJWMLVmurni kecil50,000
3915/12 20:33PATBALAK66murni kecil25,000
4015/12 20:33ALDEBRAN99murni kecil5,000
4115/12 20:33YUDA01011murni kecil5,000
4215/12 20:33SERBASALAHbalak100,000
4315/12 20:32EXLEmurni besar50,000
4415/12 20:32DC4C0835murni besar25,000
4515/12 20:32DADONG9balak100,000
4615/12 20:32HOKIMAN123murni kecil5,000
4715/12 20:32ZAKI2903murni kecil25,000
4815/12 20:31PIPIN85murni besar25,000
4915/12 20:30ERWINJUANDmurni kecil50,000
5015/12 20:30IMAMAZKA1murni kecil25,000

Ceme Multi Jackpot System

Jackpot dilihat dari gabungan kartu pemain dengan kartu bandar. Bandar harus membeli jackpot sebanyak jumlah player yang sedang duduk. Sebagai contoh bila terdapat 3 pemain duduk bermain, dan bandar memutuskan untuk membeli jackpot Rp 1.000, maka pada periode tersebut bandar akan membeli jackpot sebanyak 3xRp1.000 = Rp3.000.

Jackpot bukanlah suatu keharusan untuk dibeli, namun kami memberikan suatu fitur tambahan untuk member tercinta dari www.vodkapoker88.com.

Terdapat tiga pilihan harga jackpot yang bisa anda beli yaitu :100,500 dan 1000 rupiah.

Hadiah dari Multi jackpot system www.vodkapoker88.com

  1. Murni Kecil x 50 harga jackpot yang anda beli.
      (contoh:anda membeli 1000 maka:1000 X 50 = 50.000)
  2. Murni Besar x 50 harga jackpot yang anda beli
      (contoh:anda membeli 1000 maka:1000 X 50 = 50.000)
  3. BALAK x 200 harga jackpot yang anda beli
      (contoh:anda membeli 1000 maka:1000 X 200 = 200.000)
  4. ENAM DEWA x 6666 harga jackpot yang anda beli
      (contoh:anda membeli 1000 maka:1000 X 6666 = 6.666.000)

Demikian adalah penjelasan dari Multi Jackpot www.vodkapoker88.com terima kasih dan selamat bermain salam hoki dari kami

Ceme Jackpot Winner

TOP ENAM DEWA
No.TanggalNamaPriceWin
115/12 20:41BAFIL90murni enam3,333,000
215/12 20:38BOJONK15murni enam6,666,000
315/12 20:37MFDLCJR8CWmurni enam3,333,000
415/12 19:27IC3111ANmurni enam666,600
515/12 19:23MINAH_AJAmurni enam3,333,000
TOP BALAK
No.TanggalNamaPriceWin
115/12 20:42JMZ19balak20,000
215/12 20:42RAYVALDO2balak200,000
315/12 20:42EAP87balak20,000
415/12 20:41CAHKENEWAEbalak200,000
515/12 20:40LIMPING79balak20,000
LATEST JACKPOT
No.TanggalNamaPriceWin
115/12 20:42IKJHE69murni kecil25,000
215/12 20:42EPSON300murni kecil50,000
315/12 20:42EPSON300murni kecil50,000
415/12 20:42JOKOAMINmurni kecil25,000
515/12 20:42JMZ19balak20,000
615/12 20:42RAYVALDO2balak200,000
715/12 20:42EAP87balak20,000
815/12 20:42CAKI996murni besar25,000
915/12 20:42CARLEmurni besar5,000
1015/12 20:41DAKEDO22murni kecil25,000
1115/12 20:41REN66Amurni kecil50,000
1215/12 20:41TDR_22murni kecil5,000
1315/12 20:41BAFIL90murni enam3,333,000
1415/12 20:41YUSTY35murni kecil50,000
1515/12 20:41CARKECO564murni kecil25,000
1615/12 20:41SHIN007murni besar50,000
1715/12 20:41EMPLENGmurni besar50,000
1815/12 20:41MISKE12murni besar25,000
1915/12 20:41BUTUN420murni besar50,000
2015/12 20:41ANFAHRmurni kecil50,000
2115/12 20:41H4JUNY9ZOFmurni kecil5,000
2215/12 20:41R4J4996murni besar5,000
2315/12 20:41CAHKENEWAEbalak200,000
2415/12 20:41WIGIANmurni kecil5,000
2515/12 20:40WEDOS158murni besar50,000
2615/12 20:40LAILUI01murni besar5,000
2715/12 20:40RASENDR1YAmurni besar50,000
2815/12 20:40LUK45UK1Emurni besar50,000
2915/12 20:40SUGILIMmurni besar5,000
3015/12 20:40RAMBAN30murni besar50,000
3115/12 20:40ARJUN093murni kecil25,000
3215/12 20:40LIMPING79balak20,000
3315/12 20:40KHAPRETS82murni kecil50,000
3415/12 20:40SHAVELLAmurni kecil50,000
3515/12 20:40MAMAT4balak200,000
3615/12 20:40YOGADHNbalak100,000
3715/12 20:40SANUSI303murni kecil25,000
3815/12 20:40CARKECO564murni kecil25,000
3915/12 20:40FUKYUNG85murni besar5,000
4015/12 20:40MYBARKEERbalak200,000
4115/12 20:40CALLALLbalak200,000
4215/12 20:39F4RR3L22murni besar50,000
4315/12 20:39JMONTA77murni besar50,000
4415/12 20:39OWNER_DEWAbalak200,000
4515/12 20:39BEGONO11murni besar50,000
4615/12 20:39CU417murni kecil50,000
4715/12 20:39R1C096murni kecil50,000
4815/12 20:39ABANGFANmurni besar5,000
4915/12 20:39PAI99balak100,000
5015/12 20:39LIAN809balak100,000